GEFSSGP_con_probscp_222.txt.gz
Probability
2 1 0 0 0 0 0 0 0 0 0 0 0 0 0 0 0 0 0 0 0 0 0 0 0 1 2 1 2 3 2 1 0 0 0 0 0 0 0 0 0 0 0 0 1 0 0 0 0
1 1 0 0 0 0 1 1 1 1 0 0 0 0 0 0 0 0 0 0 0 0 0 0 1 2 2 1 2 3 2 1 0 0 0 0 0 0 0 0 0 0 0 0 1 0 0 0 0
0 0 0 0 0 0 1 2 3 2 1 0 0 0 0 0 0 0 0 0 0 0 1 1 1 2 2 2 2 2 1 0 0 0 0 0 0 0 0 0 0 0 0 0 0 0 0 0 0
0 0 0 0 0 0 1 3 5 4 1 0 0 0 0 1 1 0 0 0 0 0 1 2 1 1 2 2 2 1 0 0 0 0 0 0 0 0 0 0 0 0 0 0 0 0 0 0 0
0 0 0 0 0 0 1 3 5 4 1 0 0 0 1 3 4 2 0 0 0 1 2 2 1 1 2 3 2 1 0 0 0 0 0 0 0 0 0 0 0 0 0 0 0 0 0 0 0
0 0 0 0 0 0 1 3 4 3 2 1 1 0 1 5 8 5 2 1 1 2 2 1 0 1 2 2 1 0 0 0 0 0 0 0 0 0 0 0 0 0 0 0 0 0 0 0 0
0 0 0 0 0 0 1 2 3 3 2 2 2 1 2 6 9 7 4 2 3 3 2 1 0 1 1 1 0 0 0 0 0 0 0 0 0 0 0 0 0 0 0 0 0 0 0 0 0
0 0 0 0 0 0 1 2 3 3 3 2 2 1 3 8 12 9 6 3 3 3 1 0 0 0 0 0 0 0 0 0 0 0 0 0 0 0 0 0 0 0 0 0 0 0 0 0 0
0 0 0 0 0 0 1 4 5 4 4 4 3 2 5 12 17 13 7 4 3 2 1 0 0 0 0 0 0 0 0 0 0 0 0 0 0 0 0 0 0 0 0 0 1 1 1 0 0
0 0 0 0 0 0 1 4 5 5 6 6 6 7 9 15 19 15 8 4 3 2 1 0 0 0 0 0 0 0 0 0 0 0 0 0 0 0 0 0 0 0 0 0 1 2 1 0 0
0 0 0 0 0 0 0 2 3 4 5 7 9 10 11 13 15 13 9 4 3 1 0 0 0 0 0 0 0 0 0 0 0 0 0 0 0 0 0 0 0 0 0 0 1 1 1 0 0
0 0 0 0 0 1 1 1 2 3 4 7 9 10 10 9 9 9 7 4 2 1 0 0 0 0 0 0 0 0 0 0 0 0 0 0 0 0 0 0 0 0 0 0 0 0 0 0 0
0 0 0 0 1 2 3 2 1 2 5 7 9 9 9 7 6 5 4 4 3 3 2 1 1 0 0 0 0 0 0 0 0 0 0 0 0 0 0 0 0 0 0 0 0 0 0 0 0
0 0 0 0 2 3 3 2 1 3 6 7 8 8 7 6 3 3 3 4 5 6 6 5 3 1 0 1 1 1 1 1 1 1 0 0 0 0 0 0 0 0 0 0 0 0 0 0 0
0 0 0 0 1 2 3 2 2 3 6 7 7 6 6 4 2 1 3 6 9 11 11 10 7 4 2 2 2 2 2 2 2 2 1 0 0 0 0 0 0 0 0 0 0 0 0 0 0
0 0 0 0 0 1 2 2 2 4 6 8 7 6 4 2 1 2 5 11 15 16 16 13 9 7 6 4 3 3 3 3 3 2 2 1 0 0 0 0 0 0 0 0 0 0 0 0 0
0 0 0 0 0 0 1 2 3 5 8 8 8 6 3 2 3 6 10 16 19 20 19 14 10 9 9 6 4 3 3 3 2 2 3 2 0 0 0 0 0 0 0 0 0 0 0 0 0
0 0 0 0 0 0 1 3 5 7 9 10 9 7 5 4 6 12 16 19 20 20 20 18 14 11 10 8 6 4 2 2 2 2 3 1 0 0 0 0 0 0 0 0 0 0 0 0 0
0 0 0 0 0 0 2 5 7 8 9 11 12 11 8 7 11 18 21 20 19 19 20 21 18 14 12 10 8 4 3 2 1 2 2 1 0 0 0 0 0 0 0 0 0 0 0 0 0
0 0 0 0 1 1 3 5 7 8 8 10 13 14 11 11 16 23 25 23 19 18 19 20 19 16 14 12 10 7 4 1 0 1 1 0 0 0 0 0 0 0 0 0 0 0 0 0 0
0 0 0 0 1 2 4 4 4 5 7 9 11 13 13 13 19 24 25 24 21 19 19 18 18 17 16 15 15 12 6 1 0 1 1 1 1 0 0 1 1 1 0 0 0 0 0 0 0
0 0 0 0 1 1 2 2 2 4 6 8 10 12 14 15 18 21 23 22 21 20 20 19 20 21 22 21 19 14 7 3 1 1 2 2 2 1 2 3 3 2 2 2 2 2 2 2 2
0 0 0 0 0 0 1 1 1 3 5 7 10 13 15 16 16 17 19 21 21 22 24 26 27 28 29 27 22 15 9 5 3 3 3 2 3 3 4 5 4 3 4 5 5 5 5 5 5
0 0 0 0 0 0 0 0 1 2 4 6 10 14 17 17 16 14 17 21 24 26 30 35 36 35 33 30 24 18 12 9 6 4 3 3 3 3 4 5 6 6 6 7 7 6 6 6 6
0 0 0 0 0 0 0 0 0 1 2 5 9 13 18 19 17 15 18 24 29 33 38 42 43 40 35 30 25 20 16 12 8 5 4 4 4 4 4 5 7 8 8 8 7 6 6 6 6
0 0 0 0 0 0 0 0 0 0 0 4 8 12 17 20 21 20 22 26 31 38 45 48 47 41 37 32 27 23 19 15 10 7 5 4 4 4 4 6 7 7 7 7 6 5 6 5 5
0 0 0 0 0 0 0 0 0 1 2 5 10 13 17 22 26 27 26 28 33 39 47 51 47 41 38 36 31 27 23 18 13 8 6 4 4 5 7 6 5 4 4 4 4 4 5 4 4
0 0 0 0 0 0 0 1 1 3 6 9 12 14 17 22 30 35 34 33 35 40 45 47 45 42 39 37 34 30 25 19 13 8 6 6 6 9 10 8 6 4 3 4 4 4 4 3 3
0 0 0 0 0 0 0 1 3 5 8 10 12 13 15 20 29 37 41 42 40 40 40 43 44 43 41 39 36 31 23 17 12 8 7 9 11 11 11 10 9 7 5 5 6 5 4 3 3
0 0 0 0 0 0 0 1 3 5 7 9 10 12 14 19 26 35 43 46 44 40 38 42 46 45 43 41 38 31 21 15 11 9 9 11 12 12 12 11 10 9 7 6 6 6 4 3 3

GEFSSGP_con_probscp_228.txt.gz
Probability
0 0 0 0 0 0 0 0 0 0 0 0 0 0 0 0 0 0 1 2 1 0 0 0 1 2 2 2 1 0 0 0 0 0 0 0 0 0 0 0 0 0 0 0 0 0 1 0 0
0 0 0 0 0 0 0 0 0 0 0 0 0 0 0 0 0 0 1 2 1 0 0 0 1 2 2 2 2 1 0 0 0 0 0 0 0 0 0 0 0 0 0 0 0 1 1 1 0
0 0 0 0 0 0 0 1 1 1 0 0 0 0 0 0 0 0 1 2 1 0 0 0 1 1 2 3 3 2 0 0 0 0 0 0 0 0 0 0 0 0 0 1 1 2 2 1 0
0 0 0 0 0 0 0 1 2 1 0 0 0 0 0 0 0 0 1 2 1 1 1 0 0 1 2 3 2 1 0 0 0 1 0 0 0 0 0 0 0 0 1 1 1 1 1 0 0
0 0 0 0 0 0 1 2 2 1 0 0 0 0 0 0 0 0 1 2 1 1 0 0 1 1 2 2 1 0 0 0 0 0 0 0 0 0 0 0 0 0 1 1 1 0 0 0 0
0 0 0 0 0 0 1 2 2 1 0 0 0 0 0 0 0 0 0 1 1 0 1 1 2 2 1 1 0 0 0 0 0 0 0 0 0 0 0 0 0 0 0 0 0 0 0 0 0
0 0 0 0 0 0 0 1 2 1 0 0 0 0 0 0 0 0 0 0 0 1 2 2 2 2 1 0 0 0 0 0 0 0 0 0 0 0 0 0 0 0 0 0 0 0 0 0 0
0 0 0 0 0 0 0 0 1 1 1 1 0 0 1 1 0 0 0 0 0 1 2 2 2 2 2 1 0 0 0 0 0 0 0 0 0 0 0 0 0 0 0 0 0 0 0 0 0
0 0 0 0 0 0 1 2 2 2 2 2 1 1 3 3 1 0 0 0 0 1 1 0 1 1 1 1 0 0 0 0 0 0 0 0 0 0 0 0 0 0 0 0 0 0 0 0 0
0 0 0 0 0 1 3 4 3 1 2 2 2 3 5 5 2 0 0 0 0 0 0 0 0 0 0 0 0 0 0 0 0 0 0 0 0 0 0 0 0 0 0 0 0 0 0 0 0
0 0 0 0 0 1 3 4 2 1 1 3 5 6 7 5 3 1 0 0 0 0 0 0 0 0 0 0 0 0 0 0 0 0 0 0 0 0 0 0 0 0 0 0 0 0 0 0 0
0 0 0 0 0 1 1 1 1 0 1 3 7 8 7 5 3 1 0 0 0 0 0 0 0 0 0 0 0 0 0 0 0 0 0 0 0 0 0 0 0 0 0 0 0 0 0 0 0
0 0 0 0 0 0 0 0 0 1 3 5 7 7 6 4 2 1 0 0 0 0 0 0 0 0 0 0 0 0 0 0 0 0 0 0 0 0 0 0 0 0 0 0 0 0 0 0 0
0 0 0 0 0 0 0 0 1 3 5 6 6 6 4 3 1 0 0 0 0 0 0 0 0 0 0 0 0 0 0 0 0 0 0 0 0 0 0 0 0 0 0 0 0 0 0 0 0
0 0 0 0 0 0 0 0 1 4 6 6 5 4 2 1 0 0 0 0 0 0 0 0 0 0 0 0 0 0 0 0 0 0 0 0 0 0 0 0 0 0 0 0 0 0 0 0 0
0 0 0 0 0 0 0 0 2 6 7 6 5 2 1 0 0 0 0 0 0 0 0 0 0 0 0 0 0 0 0 0 0 0 0 0 0 0 0 0 0 0 0 0 0 0 0 0 0
0 0 0 0 0 0 0 0 3 6 7 6 5 3 1 1 1 0 1 1 0 0 1 1 1 0 0 0 0 0 0 0 0 0 0 0 0 0 0 0 0 0 0 0 0 0 0 0 0
0 0 0 0 0 0 0 0 2 4 5 6 5 3 2 2 2 2 3 3 2 3 5 4 2 1 1 1 1 0 0 0 0 1 1 0 0 0 0 0 0 0 0 0 0 0 0 0 0
0 0 0 0 0 0 0 0 1 3 3 4 4 3 2 3 3 3 4 5 5 8 10 9 6 4 4 4 2 1 0 0 1 2 1 0 0 0 0 0 0 0 0 0 0 0 0 0 0
0 0 0 0 0 0 0 0 1 1 2 3 4 3 2 2 3 4 5 5 8 12 14 13 11 8 6 5 4 2 1 0 1 1 1 0 0 0 0 0 0 0 0 0 0 0 0 0 0
0 0 0 0 0 0 0 0 0 0 1 2 4 4 2 1 2 3 5 5 8 13 16 16 13 10 8 6 5 5 4 2 1 1 0 0 0 0 0 0 0 0 0 0 0 1 1 1 0
0 0 0 0 0 0 0 0 0 0 0 1 3 3 2 1 1 3 4 5 8 12 16 16 13 10 9 8 8 9 8 6 2 0 0 0 0 0 0 0 0 0 0 0 1 3 3 2 1
0 0 0 0 0 0 0 0 0 0 0 0 1 1 1 0 0 2 4 5 8 13 17 17 13 10 10 8 8 10 9 6 3 0 0 0 0 1 0 0 0 1 1 1 3 5 4 2 1
0 0 0 0 0 0 0 0 0 0 0 0 1 1 1 1 1 2 4 6 8 13 17 18 15 12 10 8 7 8 8 5 3 1 1 1 1 1 0 0 0 0 1 2 3 4 3 2 1
0 0 0 0 0 0 0 0 0 0 0 0 1 2 3 4 3 4 5 7 10 13 17 18 17 14 11 8 8 8 6 4 3 3 2 2 1 1 1 0 0 0 0 1 2 2 2 3 3
0 0 0 0 0 0 0 0 0 0 1 1 1 1 3 5 6 6 8 10 12 15 17 18 19 17 14 11 10 10 7 5 4 3 3 2 3 3 2 1 0 0 0 0 1 2 3 3 3
0 0 0 0 0 0 0 1 1 1 2 2 1 2 4 6 7 8 10 12 15 16 18 20 21 20 17 15 15 13 10 8 7 6 4 4 4 5 4 2 0 0 0 1 2 2 2 2 2
0 0 0 0 0 0 0 1 2 3 4 4 3 4 6 7 8 9 11 13 15 16 19 23 24 23 21 19 18 16 14 12 11 9 7 6 6 7 5 3 1 1 1 1 1 1 1 1 1
0 0 0 0 0 0 0 1 2 3 4 5 5 6 7 8 9 11 13 15 16 19 22 25 27 26 23 22 22 18 15 14 11 9 7 6 5 6 6 5 4 3 2 1 1 0 0 0 0
0 0 0 0 0 0 0 1 2 2 3 5 7 7 7 8 10 12 16 18 19 21 24 27 29 28 25 24 22 19 15 14 11 8 6 5 3 4 5 6 6 4 3 3 1 0 0 0 0

GEFSSGP_con_probscp_234.txt.gz
Probability
0 0 2 3 1 0 0 0 0 0 0 0 0 0 0 0 0 0 0 0 0 0 1 0 0 0 0 0 0 0 0 0 0 0 0 0 0 0 0 0 0 0 0 0 0 0 0 0 0
0 0 2 2 1 0 0 0 0 0 0 0 0 0 0 0 0 0 0 0 0 1 1 1 0 0 0 0 0 0 0 0 0 0 0 0 0 0 0 0 0 0 0 0 0 0 0 0 0
0 0 1 1 0 0 0 0 0 0 0 0 0 0 0 0 0 0 0 0 0 1 2 1 0 0 0 0 0 0 0 0 0 0 0 0 0 0 0 0 0 0 0 0 0 0 0 0 0
0 0 0 0 0 0 0 0 0 0 0 0 0 0 0 0 0 0 0 0 1 2 2 1 1 0 0 0 0 0 0 0 0 0 0 0 0 0 0 0 0 0 0 0 0 0 0 0 0
0 0 0 0 0 0 0 0 0 0 0 0 0 0 0 0 0 0 0 0 1 2 2 1 0 0 0 0 0 0 0 0 0 0 0 0 0 0 0 0 0 0 0 0 0 0 0 0 0
0 0 0 0 0 0 0 0 0 0 0 0 0 0 0 0 0 0 0 0 1 1 1 0 0 0 0 0 0 0 0 0 0 0 0 0 0 0 0 0 0 0 0 0 0 0 0 0 0
0 0 0 0 0 0 0 0 0 0 0 0 0 0 0 0 0 0 0 0 0 0 0 0 0 0 0 0 0 0 0 0 0 0 0 0 0 0 0 0 0 0 0 0 0 0 0 0 0
0 0 0 0 0 0 0 0 0 0 0 0 0 0 1 2 1 0 0 0 0 0 0 0 0 0 0 0 0 0 0 0 0 0 0 0 0 0 0 0 0 0 0 0 0 0 0 0 0
0 0 0 0 0 0 0 0 0 0 1 1 1 1 2 4 3 1 0 0 0 0 0 0 0 0 0 0 0 0 0 0 0 0 0 0 0 0 0 0 0 0 0 0 0 0 0 0 0
0 0 0 0 0 0 0 0 0 0 1 2 2 2 3 5 5 2 0 0 0 0 0 0 0 0 0 0 0 0 0 0 0 0 0 0 0 0 0 0 0 0 1 1 1 1 1 1 0
0 0 0 0 0 0 0 0 0 0 1 3 3 4 5 6 5 3 1 0 0 0 0 0 0 0 0 0 0 0 0 0 0 0 0 0 0 0 0 0 0 1 2 2 2 2 2 2 1
0 0 0 0 0 0 0 0 0 0 1 3 3 3 4 4 3 2 1 0 0 0 0 0 0 0 0 0 0 0 0 0 0 0 0 0 0 0 0 0 0 1 2 3 3 3 3 3 3
0 0 0 0 0 0 1 1 0 1 2 3 2 1 1 1 1 1 0 0 0 0 0 0 0 0 0 0 0 0 0 0 0 0 0 0 0 0 0 0 0 1 2 3 3 3 3 3 3
0 0 0 0 0 0 1 1 1 2 3 3 1 0 0 0 0 0 0 0 0 0 0 0 0 0 1 1 1 0 0 1 1 1 1 0 0 0 0 0 1 2 3 3 3 3 3 3 2
0 0 0 0 0 0 1 1 2 3 3 2 1 0 0 0 0 0 0 0 0 0 0 0 0 0 2 3 3 1 1 3 3 3 2 0 0 0 1 1 1 2 3 3 3 3 3 3 2
0 0 0 0 0 0 0 1 2 3 3 2 1 0 0 0 0 0 0 0 1 1 1 0 0 1 3 5 5 3 3 4 5 4 2 1 1 1 2 2 2 3 3 3 3 3 3 3 3
0 0 0 0 0 0 0 0 1 2 3 2 1 0 0 0 0 1 1 1 2 4 4 3 2 3 4 5 6 5 6 6 5 4 2 3 3 2 3 3 3 3 3 3 3 3 3 3 3
0 0 0 0 0 0 0 0 0 1 1 2 1 0 0 0 0 1 2 2 3 4 5 5 5 5 5 5 6 7 8 8 6 4 3 4 5 4 3 3 3 3 3 3 3 3 3 2 2
0 0 0 0 0 0 0 0 0 0 1 2 2 1 1 0 0 1 2 1 2 3 5 5 5 5 5 4 5 7 9 9 7 5 5 5 6 4 3 3 3 3 3 3 3 1 1 1 1
0 0 0 0 0 0 0 0 0 0 0 1 2 2 2 1 0 1 2 2 3 4 5 4 4 5 5 4 4 6 8 9 8 7 6 7 6 5 4 3 2 3 4 3 3 1 0 0 0
0 0 0 0 0 0 0 0 0 0 1 2 2 3 2 1 0 2 4 5 6 6 6 6 7 8 8 7 6 6 7 8 8 8 8 8 7 7 6 4 3 3 4 3 2 1 1 1 1
0 0 0 0 0 0 0 0 0 0 1 2 2 3 3 1 0 2 5 8 7 6 6 9 11 12 12 12 10 9 9 8 8 9 9 9 8 8 7 5 3 4 3 2 1 1 1 3 4
0 0 0 0 0 0 0 0 0 0 0 1 1 2 3 2 1 1 3 6 8 7 7 10 14 17 18 16 15 14 12 10 10 10 10 9 9 9 7 4 3 3 2 2 3 3 4 4 5
0 0 0 0 0 0 0 0 0 0 0 0 0 2 3 3 3 2 2 5 8 10 10 12 16 21 23 21 19 18 17 15 14 14 13 12 11 10 7 4 3 2 2 3 6 7 7 6 5
0 0 0 0 0 0 0 0 0 0 0 0 0 2 4 5 5 5 4 5 8 11 13 15 19 23 24 22 21 23 23 20 19 17 15 14 12 10 8 4 2 1 2 4 7 9 8 7 7
0 0 0 0 0 0 0 0 0 0 0 0 0 1 4 7 8 7 5 5 7 11 15 19 22 23 21 20 22 25 25 22 20 20 18 14 12 10 8 6 3 2 2 4 7 8 7 7 9
0 0 0 0 0 0 0 0 0 0 1 1 1 2 6 9 11 9 8 6 7 11 16 21 25 26 23 21 22 25 25 24 24 26 22 16 13 12 11 10 8 7 5 5 6 7 6 6 7
0 0 0 0 0 0 0 0 1 2 3 4 4 6 9 11 12 11 11 10 9 12 16 20 25 27 25 22 23 24 25 27 30 31 27 20 16 14 15 15 14 12 9 7 6 7 6 6 6
0 0 0 0 0 0 0 1 2 4 5 6 8 9 10 11 13 14 14 13 12 13 16 17 21 27 28 26 26 27 27 29 31 33 30 23 18 16 16 18 17 14 11 8 7 6 6 6 6
0 0 0 0 0 0 0 1 3 5 6 7 8 9 10 11 13 14 14 14 14 15 16 17 21 28 32 30 30 29 29 29 30 32 30 24 20 18 18 18 17 13 10 8 6 5 5 5 6

GEFSSGP_con_probscp_240.txt.gz
Probability
1 2 7 11 9 2 0 0 0 0 0 0 0 0 0 0 0 0 0 0 0 0 0 0 0 0 0 0 0 0 0 0 0 0 0 0 0 0 0 0 0 0 0 1 1 1 0 0 0
1 4 8 9 5 1 0 0 0 0 0 0 0 0 0 0 0 0 0 0 0 0 0 0 0 0 0 0 0 0 0 0 0 0 0 0 0 0 0 0 0 0 0 0 0 0 0 0 0
2 4 6 5 2 0 0 0 0 0 0 0 0 0 0 0 0 0 0 0 0 0 0 0 0 0 0 0 0 0 0 0 0 0 0 0 0 0 0 0 0 0 0 0 0 0 0 0 0
3 4 4 2 0 0 0 0 0 0 0 0 0 0 0 0 0 0 0 1 1 0 0 0 0 0 0 0 0 0 0 0 0 0 0 0 0 0 0 0 0 0 0 0 0 0 0 0 0
4 4 2 0 0 0 0 0 0 0 0 0 0 0 0 0 1 1 1 1 1 0 0 0 0 0 0 0 0 0 0 0 0 0 0 0 0 0 0 0 0 0 0 0 0 0 0 0 0
2 1 0 0 0 0 0 0 0 0 0 0 0 1 1 1 1 1 1 1 1 0 0 1 1 1 1 1 0 0 0 0 0 0 0 0 0 0 0 0 0 0 0 0 0 0 0 0 0
0 0 0 0 0 0 0 0 0 0 0 0 1 2 2 1 1 1 0 0 0 0 0 0 1 2 2 1 0 0 0 0 0 0 0 0 0 0 0 0 0 0 1 0 0 0 0 0 0
0 0 0 0 0 0 0 0 0 1 1 0 1 2 3 2 0 0 0 0 0 0 0 0 1 1 1 1 1 0 0 0 0 0 0 0 0 0 0 0 1 1 1 1 1 1 1 1 1
0 0 0 0 0 0 0 0 1 2 2 2 2 3 2 1 0 0 0 0 0 0 0 0 0 0 1 2 3 2 0 0 0 1 2 1 1 1 1 1 2 2 2 2 2 2 2 2 2
0 0 0 0 0 0 0 1 2 4 4 4 4 4 2 0 0 0 0 0 0 0 0 0 0 0 0 2 3 2 2 2 2 2 3 2 2 2 2 3 3 3 3 3 4 4 3 3 3
0 0 0 0 0 0 1 2 3 4 4 4 5 4 1 0 0 0 1 1 2 1 1 0 0 0 1 1 1 2 3 4 3 3 3 2 2 2 3 4 4 3 3 4 4 5 4 3 3
0 0 0 0 0 1 2 3 3 3 3 3 4 4 2 1 0 0 1 2 3 2 1 1 2 2 2 2 1 0 2 3 3 4 4 2 2 3 4 4 4 4 3 3 4 4 4 4 4
0 0 0 0 0 1 3 3 3 3 2 2 3 3 2 1 0 0 1 3 4 3 2 2 3 3 4 4 2 0 1 3 5 7 6 4 3 4 5 4 4 3 3 3 3 3 4 4 4
0 0 0 0 0 2 3 3 3 3 2 2 2 2 2 2 2 2 4 5 5 4 3 4 5 6 6 6 4 1 2 5 8 10 9 7 5 5 6 5 4 3 3 4 3 3 3 4 4
0 0 0 0 0 1 2 3 3 3 2 2 2 2 3 4 4 5 6 6 5 5 5 5 6 8 9 8 6 4 5 8 10 11 11 9 7 6 6 6 4 3 4 4 4 4 4 3 3
0 0 0 0 0 0 1 3 3 3 2 3 3 3 4 4 5 6 7 6 7 9 10 8 8 12 13 12 11 9 9 11 13 13 12 11 9 7 7 6 4 3 3 4 4 5 5 4 4
0 0 0 0 0 0 1 3 4 4 3 3 3 4 5 5 5 7 9 10 13 18 18 13 12 18 20 18 17 15 13 15 16 15 15 14 11 7 6 6 5 3 3 3 4 5 6 6 6
0 0 0 0 0 0 1 3 4 4 3 2 3 6 7 6 5 7 11 14 19 26 26 21 20 25 26 23 20 16 15 16 17 18 19 17 13 9 7 6 5 4 3 4 4 5 6 6 6
0 0 0 0 0 0 0 2 4 3 3 3 4 7 9 7 5 8 13 16 22 31 32 28 26 28 29 26 22 19 17 17 19 20 21 19 15 11 11 9 7 4 4 5 6 7 6 5 4
0 0 0 0 0 0 1 2 3 3 3 4 5 8 9 9 10 15 20 21 25 32 34 30 29 29 29 28 26 24 21 20 20 22 24 23 20 16 16 15 11 7 6 7 8 9 7 5 3
0 0 0 0 0 0 1 2 3 4 4 4 5 7 9 12 17 25 28 27 28 33 34 32 31 33 32 30 27 26 25 22 22 25 27 28 27 22 20 19 15 10 8 8 10 12 10 5 3
0 0 0 0 0 1 2 2 3 5 5 4 4 5 9 13 21 29 32 31 31 32 34 36 38 39 38 34 30 28 27 24 23 26 31 33 32 28 25 22 18 14 10 9 10 12 10 5 2
0 0 0 0 0 1 2 2 2 5 6 5 4 6 9 13 19 25 31 33 32 30 34 40 44 44 41 37 32 29 27 25 24 28 34 36 35 32 29 26 23 17 13 10 10 9 8 5 3
0 0 0 0 0 1 1 1 2 5 7 6 6 8 9 11 15 20 28 34 32 30 34 40 46 46 42 37 33 29 27 26 27 31 35 35 33 32 31 29 27 22 16 13 10 8 7 6 5
0 0 0 0 0 0 0 1 3 6 8 8 9 9 8 10 13 17 25 31 33 33 36 40 47 48 44 38 35 32 29 29 31 34 35 34 31 30 29 28 28 25 20 14 11 9 7 7 8
0 0 0 0 0 0 0 2 6 7 7 8 9 8 8 11 14 17 22 27 32 35 37 42 49 52 48 42 40 38 35 34 35 36 35 34 33 32 30 29 27 24 18 13 10 8 7 9 11
0 0 0 0 0 0 0 3 8 9 7 7 6 6 9 12 16 18 22 28 35 38 40 46 54 56 51 45 42 41 40 39 38 38 36 35 36 36 35 32 27 22 17 13 9 6 6 10 13
0 0 0 0 0 0 0 3 7 11 10 8 6 6 8 13 17 20 25 33 41 41 42 50 58 58 53 47 44 42 43 44 43 41 38 37 36 37 37 34 28 23 19 14 10 6 7 11 13
0 0 0 0 0 0 0 2 8 13 14 12 9 8 10 14 17 21 26 33 37 40 44 52 59 58 55 52 47 46 48 49 46 44 42 41 39 37 36 33 29 24 19 16 13 10 9 10 12
0 0 0 1 1 1 1 3 9 14 15 13 12 11 13 16 18 21 25 28 31 35 44 53 58 58 57 55 50 49 53 52 48 46 46 46 43 39 35 32 28 22 17 16 16 13 9 9 10

GEFSSGP_con_probscp_246.txt.gz
Probability
0 0 0 0 0 0 0 0 0 0 0 0 0 0 0 0 0 0 0 0 0 0 0 0 0 0 0 0 0 0 0 0 0 0 0 0 0 0 0 0 0 0 1 2 1 0 0 0 0
0 0 0 0 0 0 0 0 0 0 0 0 0 0 0 0 0 0 0 0 0 0 0 0 0 0 0 0 0 0 0 0 0 0 0 0 0 0 0 0 0 0 0 1 0 0 0 0 0
0 0 0 0 0 0 0 1 1 1 0 0 0 0 0 0 0 0 0 0 0 0 0 0 0 0 0 0 0 0 0 0 0 0 0 0 0 0 0 0 1 1 1 1 0 0 0 0 0
0 0 0 0 0 0 0 1 2 2 1 0 0 0 0 0 0 0 0 0 0 0 0 0 0 0 0 0 0 0 0 0 0 0 0 0 0 0 0 0 1 2 2 1 0 0 0 0 0
0 0 0 0 0 0 1 2 4 4 3 1 0 0 0 0 0 0 0 0 0 0 0 1 1 1 0 0 0 0 0 0 0 0 0 0 0 0 0 0 1 2 1 1 0 0 0 0 0
0 0 0 0 0 0 1 3 4 4 3 1 0 0 0 0 0 0 0 0 0 0 0 1 1 1 0 0 0 0 0 0 0 0 0 0 0 0 0 1 2 2 1 0 0 0 0 1 1
0 0 0 0 0 0 0 1 2 2 2 1 0 0 0 1 1 1 0 0 0 0 0 0 0 0 0 0 0 0 0 0 0 0 0 0 0 0 0 1 2 1 1 1 1 0 1 2 3
0 0 0 0 0 0 1 1 1 2 2 1 0 0 0 1 2 1 0 0 0 0 0 0 0 0 0 0 0 0 0 0 0 0 0 0 0 0 1 1 0 0 1 2 2 2 4 5 4
0 0 0 0 0 1 2 3 3 3 3 1 1 1 1 2 2 2 1 0 0 0 0 0 0 0 0 0 0 0 0 0 0 0 0 0 0 0 0 0 0 0 1 3 3 4 6 6 5
0 0 0 0 1 2 4 5 4 3 2 2 2 3 3 3 4 3 2 0 0 0 0 0 0 0 0 0 0 0 0 0 0 0 0 0 0 0 0 0 0 1 2 3 3 4 4 4 4
0 0 0 1 2 4 5 5 4 2 1 1 2 3 4 4 5 6 3 1 0 0 0 0 0 0 0 0 0 0 0 0 0 0 0 0 0 0 0 0 0 1 2 3 3 3 3 3 3
0 0 1 2 3 4 6 5 4 2 1 2 2 4 4 5 6 6 3 1 0 0 0 0 0 0 0 0 0 0 1 1 1 1 0 0 0 0 0 0 0 1 3 3 3 3 3 3 3
0 0 1 3 4 5 6 5 4 3 3 3 3 4 5 6 6 5 4 3 1 1 0 0 1 1 1 0 0 1 2 2 2 2 1 0 0 0 0 1 1 2 3 3 3 3 3 3 3
0 1 2 3 4 4 4 4 3 3 4 5 4 4 4 5 6 6 5 4 3 3 2 2 2 2 2 1 1 2 3 3 3 3 2 1 0 0 1 2 3 3 3 3 3 3 3 2 2
0 1 2 3 3 2 1 1 1 2 4 5 5 4 3 4 6 6 6 4 4 5 5 5 4 3 2 2 2 2 4 4 4 3 3 1 1 1 2 3 3 3 3 3 3 3 2 2 2
0 0 1 1 1 1 0 0 1 2 3 4 3 3 3 4 5 6 5 4 4 6 6 5 4 2 2 3 3 3 5 5 4 3 3 2 2 3 3 3 3 3 3 3 3 3 3 2 2
0 0 0 0 1 1 0 1 1 2 3 3 2 3 4 4 4 4 4 3 5 7 7 4 3 3 4 4 4 4 5 5 5 4 4 4 4 4 3 3 3 3 3 3 3 3 3 3 3
0 1 1 0 1 2 2 2 2 3 4 3 1 3 3 3 3 3 3 4 6 8 8 5 5 6 6 6 5 4 5 5 5 5 6 7 6 5 4 3 3 3 3 3 3 3 3 3 2
1 1 1 1 2 2 2 3 3 3 4 2 1 2 2 1 1 2 4 6 9 10 9 9 10 11 10 7 6 6 6 6 7 7 8 8 8 7 6 4 3 3 3 3 3 3 3 2 1
0 1 1 1 1 1 1 2 3 3 3 2 1 1 1 1 2 3 5 9 12 13 13 12 14 14 12 10 8 7 6 6 7 8 9 9 10 10 9 6 4 4 3 3 3 3 2 1 0
0 0 0 0 0 0 1 2 4 4 3 2 1 2 2 3 4 5 7 10 13 16 17 16 16 15 13 11 11 9 7 6 7 9 10 10 10 12 11 8 6 5 4 3 3 2 1 0 0
0 0 0 0 0 0 0 1 3 4 3 1 1 3 3 3 4 7 8 11 15 18 20 20 19 17 14 14 15 13 10 8 8 9 9 9 10 11 11 9 8 7 5 3 3 1 0 0 0
0 0 0 0 0 0 0 0 1 2 2 1 3 5 4 3 5 10 13 15 19 23 25 24 22 20 17 17 18 17 13 10 9 8 8 8 9 10 11 11 10 9 6 4 2 1 0 0 0
0 0 0 0 0 0 0 0 0 1 2 4 7 8 7 6 9 16 20 20 23 27 28 27 26 23 21 21 21 21 18 12 9 8 9 9 9 10 11 12 12 10 7 5 2 0 0 0 0
0 0 0 0 0 0 0 0 1 2 4 8 12 13 13 13 15 19 23 24 25 26 28 29 30 28 25 24 24 24 21 17 13 11 11 12 11 10 11 13 13 11 9 7 3 1 0 0 0
0 0 0 0 0 0 0 0 2 4 6 10 14 17 19 18 16 18 22 24 24 25 27 31 34 34 30 26 25 23 22 21 18 15 14 15 14 12 11 12 12 10 9 7 5 2 0 0 0
0 0 0 0 0 0 0 1 2 5 7 11 14 18 19 16 13 14 19 24 26 26 27 31 37 38 35 30 26 23 22 23 23 20 17 17 16 15 13 12 10 8 7 6 4 2 1 0 1
0 0 0 0 0 0 0 1 2 5 8 12 14 15 15 12 9 11 18 26 30 28 28 31 39 42 39 35 30 25 24 25 25 23 20 19 18 17 15 12 10 8 7 5 4 3 2 1 1
0 0 0 0 0 0 1 2 3 5 9 12 14 13 12 11 9 10 17 25 29 28 28 34 42 46 43 38 33 31 30 30 28 24 21 19 17 16 14 12 11 9 8 5 4 3 2 1 1
0 0 0 0 0 1 2 2 3 5 8 11 13 12 11 12 11 11 15 22 25 26 30 38 44 47 45 39 35 36 36 33 31 26 21 17 16 15 13 11 11 10 9 6 4 3 1 0 0

GEFSSGP_con_probscp_252.txt.gz
Probability
0 0 0 0 0 0 0 0 0 0 0 0 0 0 0 0 0 0 0 0 0 0 0 0 0 0 0 0 0 0 0 0 0 0 0 0 0 0 0 0 0 0 1 1 0 1 1 1 0
0 0 0 0 0 0 0 0 0 0 0 0 0 0 0 0 0 0 0 0 0 0 0 0 0 0 0 0 0 0 0 0 0 0 0 0 0 0 0 0 0 1 2 2 1 0 0 0 0
0 0 0 0 0 0 0 0 0 0 0 0 0 0 0 0 0 0 0 0 0 0 0 0 0 0 0 0 0 0 0 0 0 0 0 0 0 0 0 0 0 1 3 3 1 0 0 0 0
0 0 0 0 0 0 0 0 0 0 0 0 0 0 0 0 0 0 0 0 0 0 0 0 0 0 0 0 0 0 0 0 0 0 0 0 0 0 0 0 1 3 4 3 1 0 0 0 0
0 0 0 0 0 0 0 0 0 0 0 0 0 0 0 0 0 0 0 0 0 0 0 0 0 0 0 0 0 0 0 0 0 0 0 0 0 0 0 0 2 3 3 1 0 0 0 0 0
0 0 0 0 0 0 0 0 0 0 0 0 0 0 0 0 0 0 0 0 0 0 0 0 0 0 0 0 0 0 0 0 0 0 0 0 0 1 1 1 2 2 1 0 0 0 0 0 0
0 0 0 0 0 0 0 0 0 0 0 0 0 0 0 0 0 0 0 0 0 0 0 0 0 0 0 0 0 0 0 0 0 0 0 0 0 1 1 1 2 1 0 0 0 0 0 0 0
0 0 0 0 0 0 0 0 0 0 0 0 0 0 0 0 0 0 0 0 0 0 0 0 0 0 0 0 0 0 0 0 0 0 0 0 0 0 0 1 1 1 0 0 0 0 0 0 0
0 0 0 0 0 1 1 2 1 0 0 0 0 0 1 1 0 0 0 0 0 0 0 0 0 0 0 0 0 0 0 0 0 0 0 0 0 0 0 0 1 1 0 0 0 0 0 0 0
0 0 0 0 1 2 3 3 2 1 1 0 0 0 1 2 1 0 0 0 0 0 0 0 0 0 0 0 0 0 0 0 0 0 0 0 0 0 0 0 0 0 0 0 0 0 0 0 0
1 1 1 1 1 3 4 4 3 2 1 0 0 1 2 2 1 0 0 0 0 0 0 0 0 0 0 0 0 0 0 0 0 0 0 0 0 0 0 0 0 0 0 0 0 0 1 1 1
2 2 2 2 3 3 3 3 3 2 1 0 1 3 3 2 1 0 0 0 0 0 0 0 0 0 0 0 0 0 0 0 0 0 0 0 0 0 0 0 0 0 0 0 0 1 2 2 2
2 2 2 2 2 2 2 2 1 1 0 0 2 5 5 2 1 0 0 0 0 0 0 0 0 0 0 0 0 0 0 0 0 0 0 0 0 0 0 0 0 0 0 0 1 1 2 2 2
1 1 1 1 1 1 1 1 0 0 0 0 1 3 3 1 0 0 0 0 0 0 0 0 0 0 0 0 0 0 0 0 1 1 0 0 0 1 1 0 0 0 0 1 2 2 1 1 2
0 0 0 0 0 0 0 0 0 0 0 0 0 1 1 0 0 0 0 0 0 0 0 0 0 0 0 0 0 0 0 0 1 1 0 0 0 1 1 0 0 0 1 1 3 3 1 1 2
0 0 0 0 0 0 0 0 0 0 0 0 0 0 0 0 0 0 0 0 0 1 1 1 0 0 0 0 0 0 0 0 1 1 0 0 0 1 1 0 1 1 2 3 3 3 3 2 1
0 0 0 0 0 0 0 0 0 0 0 0 0 0 0 0 0 0 0 0 0 1 1 1 0 0 0 0 0 0 0 0 0 0 0 0 0 1 1 1 2 3 3 3 3 3 3 2 1
0 0 0 0 0 0 0 0 0 0 0 0 0 0 0 0 0 0 0 0 0 0 1 2 1 0 0 1 1 1 1 0 0 1 1 1 1 2 2 3 3 3 3 3 3 2 1 1 0
0 0 0 0 0 0 0 0 0 0 0 0 0 0 0 0 0 0 0 0 0 0 1 2 1 0 0 1 2 2 2 1 1 2 2 2 3 3 3 3 3 3 3 3 3 2 0 0 0
0 0 0 0 0 0 0 0 0 0 0 0 0 0 1 1 0 0 1 1 1 1 2 2 1 0 0 1 2 4 3 2 2 3 3 3 3 3 3 3 3 3 3 3 3 2 0 0 0
0 0 0 0 0 0 0 0 0 0 0 0 0 1 2 2 1 1 2 3 4 4 3 3 2 1 1 1 3 5 6 5 5 4 4 4 4 4 3 3 3 3 3 3 3 1 0 0 0
0 0 0 0 0 0 0 0 0 0 0 0 0 1 2 3 2 2 2 3 4 4 4 4 3 3 2 3 5 7 6 6 6 5 5 4 4 4 4 3 3 3 3 3 2 1 0 0 0
0 0 0 0 0 0 0 0 0 0 0 0 0 0 1 2 3 3 2 2 2 3 3 3 3 3 3 4 6 7 6 4 5 5 5 4 3 4 3 3 3 3 4 4 3 1 1 1 1
0 0 0 0 0 0 0 0 0 0 0 0 0 0 0 1 3 4 4 3 3 4 4 4 4 4 4 5 6 7 6 4 5 5 4 2 3 3 3 4 3 4 5 5 3 1 1 2 1
0 0 0 0 0 0 0 0 0 0 0 0 0 1 2 2 3 4 6 6 6 6 7 7 7 7 8 8 9 8 7 6 6 6 4 3 3 4 4 4 4 4 5 5 2 1 2 2 1
0 0 0 0 0 0 0 0 0 0 0 0 1 2 5 6 6 6 7 9 9 10 11 12 12 12 12 12 12 11 8 7 7 7 6 6 6 6 6 5 5 5 6 4 3 3 3 2 1
0 0 0 0 0 0 0 0 0 0 0 1 2 4 6 8 9 9 8 9 11 12 13 14 15 15 14 13 14 13 9 7 9 11 10 10 9 9 7 6 6 6 6 5 4 4 3 3 2
0 0 0 0 0 0 0 0 1 2 2 2 3 5 7 9 10 9 7 8 9 12 13 13 14 15 15 14 15 14 11 10 13 15 15 13 11 9 8 7 5 5 6 5 5 5 4 3 3
0 0 0 0 0 0 0 0 1 3 4 4 5 8 9 10 9 7 6 6 8 11 13 14 14 16 17 16 17 16 14 14 16 18 19 17 13 9 8 6 4 5 6 6 6 5 4 3 3
0 0 0 0 0 0 0 1 2 4 5 6 7 10 11 10 9 7 5 5 7 11 13 15 16 18 18 17 17 17 15 15 19 21 21 19 14 10 7 5 5 6 6 6 6 5 4 3 3

GEFSSGP_con_probscp_258.txt.gz
Probability
4 2 1 0 0 0 0 0 0 0 0 0 0 0 0 0 0 0 0 0 0 0 0 0 0 0 0 0 0 0 0 0 0 0 0 0 0 0 0 1 2 2 1 1 1 1 0 1 1
2 1 1 0 0 0 0 0 0 0 0 0 0 0 0 0 0 0 0 0 0 0 0 0 0 0 0 0 0 0 0 0 0 0 0 0 0 0 0 1 2 2 1 0 0 0 1 2 2
1 0 0 0 0 0 0 0 0 0 0 0 0 0 0 0 0 0 0 0 0 0 0 0 0 0 0 0 0 0 0 0 0 0 0 0 0 0 0 1 2 2 1 0 0 0 1 2 3
0 0 0 0 0 0 0 0 0 0 0 0 0 0 0 0 0 0 0 0 0 0 0 0 0 0 0 0 0 0 0 0 0 0 0 0 0 0 0 1 2 2 0 0 0 0 1 1 1
0 0 0 0 0 0 0 0 0 0 0 0 0 0 0 0 0 0 0 0 0 0 0 0 0 0 0 0 0 0 0 0 0 0 0 0 0 0 0 1 2 2 0 0 0 0 0 0 0
0 0 0 0 0 0 0 0 0 0 0 0 0 0 0 0 0 0 0 0 0 0 0 0 0 0 0 0 0 0 0 0 0 0 0 0 0 0 0 0 1 1 0 0 0 0 0 0 0
0 0 0 0 0 0 0 0 0 0 0 0 0 0 0 0 0 0 0 0 0 0 0 0 1 1 1 0 0 0 0 0 0 0 0 0 0 0 0 0 0 0 0 0 0 0 0 0 0
0 0 0 0 0 0 0 0 1 1 1 1 1 0 0 0 0 0 0 0 0 0 0 0 1 2 1 0 0 1 1 0 0 0 0 0 0 0 0 0 1 1 1 0 0 0 0 0 0
0 0 0 0 0 0 0 1 2 2 2 2 2 1 0 0 0 0 0 0 0 0 0 0 1 2 1 0 1 2 3 1 0 0 0 0 0 0 0 0 1 1 1 0 0 0 0 0 0
0 0 0 0 0 0 0 1 2 1 1 1 2 1 0 0 0 0 0 0 0 0 0 0 0 1 1 0 0 1 2 1 0 0 0 1 0 0 0 0 0 0 0 0 0 0 0 0 0
0 0 0 0 0 0 0 1 2 1 0 0 1 1 0 0 0 0 0 0 0 0 0 0 0 0 0 0 0 0 0 0 0 0 0 1 1 0 0 0 0 0 0 0 0 0 0 0 0
0 0 0 0 0 0 0 1 1 1 0 0 0 0 0 0 0 0 0 0 0 0 0 0 0 0 0 0 0 0 0 0 1 1 1 1 1 0 0 0 0 0 0 0 0 0 0 0 0
0 0 0 0 0 0 0 0 0 0 0 0 0 0 0 0 0 0 0 0 0 0 0 0 0 0 0 0 0 0 0 1 2 2 2 1 1 1 1 1 2 2 2 2 1 1 1 1 1
0 0 0 0 0 0 0 0 0 0 0 0 0 0 0 0 0 0 0 0 0 0 0 0 0 0 1 0 0 0 0 1 1 2 2 2 2 2 1 2 3 4 5 5 4 3 2 2 2
0 0 0 0 0 0 0 0 0 0 0 0 0 0 0 0 0 0 0 0 0 0 0 0 0 0 1 1 0 0 0 1 1 1 2 3 3 2 2 3 4 5 6 6 5 4 3 3 3
0 0 0 0 0 0 0 0 0 0 0 0 0 0 0 0 0 0 0 0 0 0 0 0 0 0 1 1 1 1 1 1 2 2 2 3 3 3 3 3 3 4 5 6 5 5 4 3 3
0 0 0 0 0 0 0 0 0 0 0 0 0 0 0 0 0 0 0 0 0 0 0 0 0 1 1 2 3 2 2 2 3 4 4 4 4 3 3 3 3 3 4 4 4 4 3 3 3
0 0 0 0 0 0 0 0 0 0 0 0 0 0 0 0 0 0 0 0 0 0 0 0 1 3 4 4 3 3 4 5 6 6 6 6 5 4 3 3 3 3 4 4 4 3 4 3 3
0 0 0 0 0 0 0 0 0 0 0 0 0 0 0 0 0 1 1 0 0 0 0 2 4 6 7 7 6 6 7 7 9 10 9 8 7 6 4 3 3 4 4 4 4 4 4 4 3
0 0 0 0 0 0 1 0 0 1 0 0 0 0 0 0 0 1 2 1 1 1 2 5 8 10 11 11 10 10 9 9 10 11 11 10 9 8 5 4 4 5 6 5 5 5 4 4 4
0 0 0 0 0 0 0 0 0 0 0 0 0 0 0 0 0 1 2 3 3 3 5 8 11 14 14 14 13 12 11 10 10 11 11 10 10 9 8 7 8 7 7 6 6 5 4 4 4
0 0 0 0 0 0 0 0 0 0 0 0 0 0 0 0 0 1 3 6 6 6 7 11 16 19 19 18 16 14 12 10 10 10 10 10 10 10 10 11 11 9 8 7 6 5 5 4 4
0 0 0 0 0 0 0 0 0 0 0 0 0 0 0 0 1 2 5 8 8 8 10 13 18 21 22 22 21 18 14 11 11 11 11 12 13 12 12 13 12 10 9 9 8 8 7 5 5
0 0 0 0 0 0 0 0 0 0 1 1 1 1 1 1 3 5 7 10 11 11 11 13 17 21 21 21 22 21 18 15 15 14 13 14 15 14 14 13 12 11 9 10 11 11 9 8 7
0 0 0 0 0 0 0 0 0 1 2 2 2 2 3 4 5 7 10 13 15 15 13 14 17 21 21 20 20 21 21 19 18 17 15 13 14 15 15 14 13 12 10 11 13 13 10 9 10
0 0 0 0 0 0 0 0 0 1 2 3 3 3 4 6 7 9 12 15 18 17 16 16 19 23 23 21 21 22 23 21 19 19 17 14 13 15 15 15 15 13 11 12 15 15 11 9 10
0 0 0 0 0 0 0 0 0 1 1 2 3 6 8 10 12 12 14 16 18 19 17 17 21 26 26 25 25 25 24 23 21 21 21 17 16 17 17 17 16 13 11 12 14 14 11 10 10
0 0 0 0 0 0 0 0 0 0 0 2 5 9 13 14 15 15 15 15 17 19 19 20 24 26 26 26 27 28 26 26 26 26 26 24 23 22 21 19 15 12 10 11 11 11 9 9 10
0 0 0 0 0 0 0 0 1 2 1 3 8 12 14 15 15 14 15 15 16 18 21 23 24 23 23 24 27 29 31 31 32 32 32 31 30 28 25 22 16 12 10 10 10 9 8 8 9
0 0 0 0 0 0 0 1 4 5 3 5 9 11 12 13 12 12 13 16 17 20 24 26 24 22 21 23 26 30 34 35 35 35 36 35 33 31 29 24 17 14 12 11 11 9 7 9 10

GEFSSGP_con_probscp_264.txt.gz
Probability
3 6 13 19 15 5 1 0 0 0 0 0 0 0 0 0 0 0 0 0 0 0 0 0 0 0 0 0 0 0 0 0 0 0 0 0 0 1 2 3 2 1 1 3 2 1 0 0 0
6 8 13 14 9 2 0 0 0 0 0 0 0 0 0 0 0 0 0 0 0 0 0 0 0 0 0 0 0 0 0 0 0 0 0 0 0 0 1 2 2 1 2 3 2 1 0 0 0
10 12 12 7 2 0 0 0 0 0 0 0 0 0 0 0 0 0 0 0 0 0 0 0 0 0 0 0 0 0 0 0 0 0 0 0 0 0 1 1 1 1 2 2 2 1 0 0 0
13 13 9 3 0 0 0 0 0 0 0 0 0 1 1 1 0 0 0 0 1 1 1 1 1 1 1 1 0 0 0 0 0 0 0 0 0 0 0 0 0 0 1 1 1 0 0 0 0
12 9 5 1 0 0 0 0 0 0 0 0 0 1 2 1 0 0 0 0 1 2 1 1 2 3 2 2 1 0 0 0 0 0 0 0 0 0 0 0 0 0 0 0 0 0 0 0 0
7 5 2 0 0 0 0 0 0 0 0 0 0 1 2 1 0 0 0 0 1 3 3 2 3 3 3 3 2 1 0 0 0 0 0 0 0 0 0 0 0 0 0 0 0 0 0 0 0
2 1 0 0 0 0 0 0 0 0 1 1 1 0 1 1 0 0 0 0 1 3 4 3 3 3 4 4 4 3 2 0 0 0 0 0 0 1 2 1 0 0 0 0 0 1 0 0 0
1 0 0 0 0 0 0 0 0 1 2 2 2 1 0 0 0 0 0 0 0 1 2 3 3 3 3 4 6 7 5 3 2 2 1 1 1 3 3 2 1 1 0 0 0 0 0 0 0
0 0 0 0 0 0 0 1 1 1 2 2 2 1 0 0 0 0 0 0 0 0 1 1 2 3 3 4 6 8 7 6 5 5 4 3 3 3 3 3 3 3 2 1 0 0 0 0 0
0 0 0 0 0 0 1 2 1 1 1 1 1 0 0 0 0 0 0 0 0 0 0 1 1 2 2 4 5 6 6 6 7 6 5 4 3 4 4 4 5 5 4 2 1 1 1 1 1
0 0 0 0 0 1 2 2 1 0 0 0 0 0 0 0 0 0 0 0 0 0 0 1 1 1 2 2 3 4 4 6 7 7 6 4 4 5 5 5 5 5 4 3 3 3 3 3 3
0 0 0 0 1 2 2 1 0 0 0 0 0 0 0 0 0 0 0 0 1 1 1 1 2 3 3 2 3 3 4 5 7 9 8 6 5 5 5 5 5 5 4 4 5 5 5 5 6
0 0 0 0 1 2 2 1 0 0 0 0 0 0 0 1 1 0 0 1 2 2 2 3 4 4 4 4 4 4 4 4 6 10 11 8 6 6 7 7 6 6 5 5 5 5 6 6 6
0 0 0 0 1 1 1 0 0 0 0 0 0 0 1 2 3 2 1 2 3 3 2 4 5 6 6 6 6 5 4 4 7 10 12 11 8 7 8 8 7 6 6 6 5 6 7 7 6
0 0 0 0 0 0 0 0 0 0 0 0 0 0 2 4 5 4 3 3 3 4 4 4 5 7 8 8 7 6 5 6 8 11 13 12 10 8 8 8 7 6 7 7 7 7 7 7 6
0 0 0 0 0 0 0 0 0 0 0 0 0 1 3 6 7 7 5 4 4 6 7 5 4 7 10 10 8 7 8 9 10 12 14 15 12 9 9 10 9 8 7 8 8 7 7 7 6
0 0 0 0 0 0 0 0 1 0 0 0 0 2 5 8 9 9 7 6 7 10 12 9 7 9 12 12 10 9 10 11 12 14 17 18 15 12 13 14 13 10 8 8 7 7 7 6 6
0 0 0 0 0 0 0 0 0 0 0 0 1 4 7 8 9 9 8 6 9 16 19 16 13 13 14 14 12 11 10 11 12 15 20 22 18 15 16 18 17 13 10 9 9 8 7 5 4
0 0 0 0 0 0 0 0 0 0 0 0 2 7 8 9 10 10 8 7 12 20 25 23 20 19 17 16 14 12 11 10 11 13 19 23 21 18 18 20 21 17 13 12 11 9 7 5 4
0 0 0 0 0 0 0 0 0 1 0 0 2 7 9 11 15 15 12 11 16 24 28 27 25 23 21 19 16 13 12 12 12 14 20 23 23 22 21 22 23 20 16 15 14 12 9 6 4
0 0 0 0 0 0 0 0 0 1 1 0 1 5 9 14 19 22 20 19 21 26 29 29 29 27 25 22 20 18 18 18 18 21 25 26 26 26 25 25 25 22 18 17 16 14 12 9 6
0 0 0 0 0 0 0 0 1 3 3 1 1 5 10 15 20 25 27 27 26 25 26 29 31 31 28 26 25 25 25 24 24 27 29 30 29 29 29 28 26 23 19 17 17 16 15 13 10
0 0 0 0 0 0 0 0 1 4 5 3 2 5 10 14 17 24 29 32 30 25 24 28 32 34 32 30 29 29 29 28 27 28 30 31 31 31 30 30 27 23 18 16 17 18 18 16 14
0 0 0 0 0 0 0 0 1 3 5 5 4 6 11 14 15 22 29 33 33 31 28 31 36 37 35 32 30 30 31 31 29 30 32 32 31 31 30 29 27 24 20 18 18 19 18 17 15
0 0 0 1 1 1 0 0 1 2 5 5 5 8 12 15 17 21 27 32 35 37 36 38 41 41 37 32 30 32 32 31 31 32 35 34 33 32 31 30 29 27 24 19 18 18 17 16 15
0 0 0 1 1 1 0 1 2 3 4 5 5 8 12 16 19 22 25 30 34 37 41 44 44 43 39 35 34 35 35 33 32 33 36 36 35 34 33 33 33 31 26 21 18 17 16 15 14
0 0 0 0 1 0 0 2 4 4 5 6 6 7 10 16 21 23 25 27 30 35 40 42 42 42 41 39 38 37 37 36 34 35 36 37 37 36 36 37 35 31 27 22 18 16 15 13 12
1 0 0 0 1 0 0 2 5 7 8 9 7 7 10 15 20 23 24 25 28 32 36 37 38 40 41 41 40 40 41 42 41 40 41 42 41 40 39 40 37 33 28 23 19 18 16 13 11
1 0 0 1 1 1 0 2 5 8 11 12 10 10 13 16 19 22 23 24 27 30 31 33 35 38 39 40 41 41 44 47 48 48 48 48 46 43 42 41 38 36 31 25 22 19 16 13 11
1 0 0 1 3 2 1 1 4 8 11 13 14 15 17 18 19 21 24 24 25 27 30 32 34 36 37 37 39 42 45 49 52 52 51 50 47 44 42 40 39 37 32 28 24 19 15 12 12

GEFSSGP_con_probscp_270.txt.gz
Probability
8 4 1 0 0 0 0 0 0 0 0 1 1 1 1 0 0 0 1 2 2 2 1 2 2 1 0 0 0 0 0 0 0 0 0 0 1 1 1 0 0 0 0 0 0 0 0 0 0
3 2 0 0 0 0 0 0 0 0 0 0 1 1 1 0 0 0 0 1 1 1 1 2 2 2 1 0 0 0 0 0 0 0 0 0 0 0 0 0 0 0 0 0 0 0 0 0 0
0 0 0 0 0 0 0 1 2 1 0 0 0 1 1 0 0 0 0 0 0 0 0 1 3 3 2 1 0 0 0 0 0 0 0 0 0 0 0 0 0 0 0 0 0 0 0 0 0
1 1 1 0 0 0 0 2 3 2 0 0 0 0 0 0 0 0 0 0 0 0 0 1 2 3 3 2 1 0 0 0 0 0 0 0 0 0 0 0 0 0 0 0 0 0 0 0 0
1 1 1 0 0 0 0 1 2 1 0 0 0 0 0 0 0 0 0 0 0 0 0 0 1 2 3 3 1 0 0 0 0 0 0 0 0 1 1 1 0 0 0 0 0 0 0 0 0
2 1 0 0 0 0 0 0 1 0 0 0 0 0 0 0 0 0 0 0 0 0 0 0 1 2 3 4 3 2 1 1 0 0 1 1 1 2 2 1 0 0 0 0 0 0 0 0 0
2 1 0 0 0 0 0 0 0 0 0 0 0 0 0 0 0 0 0 0 0 0 0 0 1 2 2 4 5 5 4 2 1 1 1 2 3 3 3 1 0 0 0 0 0 0 0 0 0
2 1 0 0 0 0 0 0 0 1 1 0 0 0 0 0 0 0 0 0 0 1 1 1 2 2 2 2 4 5 4 3 2 2 2 4 4 3 2 1 0 0 0 0 0 0 0 0 0
1 0 0 0 0 0 0 0 1 2 2 1 0 0 0 0 0 0 0 0 1 2 1 1 2 3 3 3 3 3 2 1 2 2 3 3 2 1 1 1 1 1 1 1 1 1 0 0 0
0 0 0 0 0 0 0 0 1 2 2 1 1 1 0 0 0 0 0 0 1 2 1 0 1 3 3 3 3 3 2 1 1 1 1 1 0 0 0 1 2 2 2 2 2 2 1 0 0
0 0 0 0 0 0 0 0 1 1 2 2 2 2 1 0 0 0 0 0 1 2 1 0 1 3 4 4 3 3 3 2 1 0 0 0 0 0 0 0 1 3 3 3 3 2 1 0 0
0 0 0 0 0 0 0 0 0 0 1 3 3 2 1 0 0 0 0 1 2 3 2 2 2 3 5 5 4 3 4 3 1 1 0 0 0 0 0 0 1 2 3 3 3 3 1 1 1
0 0 0 0 0 1 2 1 0 0 1 3 3 2 0 0 0 0 0 1 2 3 3 3 3 3 4 5 4 4 5 4 3 2 2 2 1 0 0 1 1 2 3 3 3 3 3 2 2
0 0 0 0 0 1 2 1 0 2 3 3 4 3 1 1 1 1 1 1 3 3 3 3 3 3 4 4 4 4 6 6 5 3 3 3 2 1 0 0 0 1 3 3 3 3 3 3 3
0 0 0 0 0 0 1 1 2 4 5 4 4 3 3 3 3 3 2 2 3 3 3 4 5 5 6 5 4 4 5 5 4 3 4 4 3 2 1 0 0 1 2 2 3 3 3 3 3
0 0 0 0 0 0 0 0 2 5 7 6 4 3 4 5 6 5 3 3 3 3 3 4 6 7 8 7 5 4 4 3 2 2 3 4 4 3 2 1 1 2 2 3 3 3 3 3 3
0 0 0 0 0 0 0 0 1 4 7 8 6 4 4 6 7 6 5 4 4 4 3 4 5 7 7 8 7 6 5 4 3 2 2 3 3 3 3 2 2 3 3 3 3 3 3 3 3
0 0 0 0 0 0 0 0 1 3 5 6 5 4 5 6 8 8 8 7 6 4 3 4 5 6 7 8 8 7 6 6 5 4 3 3 4 4 4 4 4 4 3 3 3 3 3 3 3
0 0 0 0 0 0 0 0 0 1 3 4 4 6 7 8 9 11 11 9 8 6 5 5 6 8 9 9 9 8 7 6 7 7 7 6 4 5 7 7 5 4 3 3 3 3 3 3 3
0 0 0 0 0 0 0 0 0 1 3 4 4 7 10 11 10 12 12 12 11 10 8 7 7 9 10 10 9 8 7 6 7 7 8 8 7 8 10 9 6 4 3 3 3 3 3 3 3
0 0 0 0 0 0 0 0 0 1 4 5 6 8 12 13 11 11 11 13 14 14 11 8 8 10 11 11 10 9 8 7 7 6 6 7 9 10 12 11 9 6 4 3 3 4 3 3 3
0 0 0 0 0 0 0 0 0 1 4 7 8 10 13 15 13 11 9 11 15 16 13 11 10 12 13 13 12 12 11 9 7 5 5 6 9 11 12 12 11 9 7 5 5 5 4 2 1
0 0 0 1 0 0 0 0 0 0 2 5 8 11 14 16 15 12 10 11 14 16 16 15 14 15 17 17 17 17 15 11 9 6 5 6 8 12 13 13 12 11 9 8 7 6 4 2 1
0 0 1 2 1 0 0 0 0 0 0 2 7 12 16 16 15 15 14 14 14 16 19 19 17 18 22 24 24 22 19 16 13 9 7 6 8 11 13 13 13 12 10 9 8 7 4 3 2
0 0 0 1 0 0 0 0 0 0 0 1 5 12 17 18 17 19 20 19 17 17 20 21 20 22 26 28 28 25 22 19 17 13 10 7 8 10 12 12 12 11 10 9 8 7 6 4 4
0 0 0 0 0 0 0 0 0 0 1 2 6 13 20 20 20 21 23 23 21 19 21 23 24 25 29 31 30 27 24 21 20 17 13 10 9 10 12 13 11 10 10 9 7 7 6 6 6
0 0 0 0 0 0 0 0 0 0 1 4 8 15 21 20 19 20 23 24 22 20 21 25 27 27 30 33 32 29 27 25 24 21 17 13 12 12 14 14 11 9 9 9 8 7 6 6 6
1 0 0 0 0 0 0 0 0 0 2 6 10 14 18 18 17 18 20 22 22 21 22 26 27 25 27 30 30 30 29 28 27 25 20 17 17 16 16 15 12 10 9 9 9 8 7 7 7
2 1 0 0 0 0 0 0 1 2 4 9 12 14 17 18 17 18 20 22 23 24 25 26 25 24 24 25 25 26 27 28 29 28 25 23 22 21 18 15 13 11 9 8 9 9 8 8 7
2 1 0 0 0 0 0 1 2 3 7 11 15 17 18 18 18 19 22 25 25 26 27 26 24 23 24 24 22 22 25 27 30 31 29 26 25 23 19 15 13 12 9 9 9 9 9 8 8